Location: Fornova de Taro
(44.7000°N, 10.1000°E)
Time: 01:42:54
(UTC+00:00)

Meteor 1-11 - Pass Details

Date: 26 May 2022
Orbit: 839 x 887 km, 81.2° (Epoch: 26 June)

Event Time Altitude Azimuth Distance (km) Brightness Sun altitude
Exits shadow 02:45:18 - 186° (S) 3,396 6.9 -8.8°
Reaches altitude 10° 02:47:31 10° 186° (S) 2,543 6.3 -8.5°
Maximum altitude 02:53:20 83° 99° (E) 896 4.4 -7.7°
Drops below altitude 10° 02:59:08 10° 12° (NNE) 2,543 7.5 -7.0°
Sets 03:01:35 0° 12° (NNE) 3,480 8.3 -6.6°
